Погода в Ломе

Того     6°10′05″N   1°14′36″E
темп.,
°C
ветер,
м/с
пор.,
м/с
влажн.,
%
обл.,
%
осадки,
мм/ч
давл.,
гПа
погр.,
м
24 июля, сб
сб2400:00+24юз37805 0.0 1015564
03:00+23зюз388238 0.0 1014552
06:00+23зюз3885100 0.0 1015539
09:00+27юз4662100 0.0 10161136
12:00+28ююз565697 0.0 10151336
15:00+29ююз675375 0.0 10131185
18:00+26ююз686372 0.0 1013729
21:00+25юз486897 0.0 1015672
25 июля, вс
вс2500:00+24юз377158 0.0 1015528
03:00+24юз37765 0.0 1014437
06:00+23юз367920 0.0 1015361
09:00+28юз465811 0.0 10161078
12:00+30ююз6648100 0.0 10141619
15:00+29ююз78516 0.0 10121226
18:00+26ююз68676 0.0 1013721
21:00+25ююз577215 0.0 1015682
26 июля, пн
пн2600:00+24юз47755 0.0 1015573
03:00+23юз36795 0.0 1014460
06:00+23юз387910 0.0 1015556
09:00+27юз4561100 0.0 10171031
12:00+31ююз554838 0.0 10151509
15:00+30ююз665038 0.0 10121311
18:00+26ююз676760 0.0 1013667
21:00+25ююз577299 0.0 1015627
27 июля, вт
вт2700:00+24юз487652 0.0 1014656
03:00+24юз487840 0.0 1013745
06:00+24юз4876100 0.0 1014822
09:00+26зюз5764100 0.0 10161030
12:00+29ююз675391 0.0 10141495
15:00+29ююз665193 0.0 10131173
18:00+26ююз575982 0.0 1013807
21:00+25ююз596696 0.0 1015732
28 июля, ср
ср2800:00+25юз4970100 0.0 1014761
03:00+24юз4871100 0.0 1012706
06:00+24юз3775100 0.0 1014651
09:00+26юз466782 0.0 1015810
12:00+29ююз564894 0.0 10141412
15:00+29ю564999 0.0 1012894
18:00+27ююз475983 0.0 1013774
21:00+25юз356863 0.0 1015382